Other Surface Observations
Issued by NWS Upton, NY

Home | Current Version | Previous Version | Text Only | Print | Product List | Glossary On
Versions: 1 2 3 4 5 6 7 8 9 10 11 12 13 14 15 16 17 18 19 20 21 22 23 24 25 26 27 28 29 30 31 32 33 34 35 36 37 38 39 40 41 42 43 44 45 46 47 48 49 50
000
SXUS51 KOKX 250057
OSOOKX
NEW YORK CITY METROPOLITAN AREA WEATHER ROUNDUP
National Weather Service New York NY
900 PM EDT SUN SEP 24 2017

CITY           SKY/WX    TMP DP  RH WIND       PRES   REMARKS
Central Park   CLEAR     78  63  59 S3        30.08R
LaGuardia APRT PTCLDY    77  63  61 S7        30.04R
Kennedy INTL   PTCLDY    72  66  81 S5        30.06R
Newark Liberty CLEAR     79  64  60 E3        30.04R
Teterboro APRT CLEAR     77  65  66 SW6       30.03R
Bronx Bot Gard   N/A     75  59  57 SE1       30.07R

>>>>>>>>>>>>>>>>>>>>>>>>>>>>>>>>> KEY <<<<<<<<<<<<<<<<<<<<<<<<<<<<<<<
> SKY/WX - SKY CONDITION/PRESENT    : R : WCI - WIND CHILL INDEX    <
>          WEATHER                  : E : VSB - VISIBILITY IN MILES <
> TMP    - TEMPERATURE IN DEG F     : M : HX  - HEAT INDEX          <
> DP     - DEW POINT TEMPERATURE    : A : TC  - TEMPERATURE IN      <
> RH     - RELATIVE HUMIDITY        : R :       CELSIUS             <
> WIND   - DIRECTION/SPEED (MPH)    : K : VRB - VARIABLE WIND  DIR  <
> PRES   - PRESSURE (IN HG)         : S :                           <
>>>>>>>>>>>>>>>>>>>>>>>>>>>>>>>>> KEY <<<<<<<<<<<<<<<<<<<<<<<<<<<<<<<




USA.gov is the U.S. government's official web portal to all federal, state and local government web resources and services.